Regional Weather Roundup
Issued by NWS Raleigh/Durham, NC

Home | Current Version | Previous Version | Text Only | Print | Product List | Glossary On
Versions: 1 2 3 4 5 6 7 8 9 10 11 12 13 14 15 16 17 18 19 20 21 22 23 24 25 26 27
000
ASUS42 KRAH 231810
RWRRAH
NORTH CAROLINA WEATHER ROUNDUP
NATIONAL WEATHER SERVICE RALEIGH NC
200 PM EDT WED APR 23 2014

NOTE: "FAIR" INDICATES FEW OR NO CLOUDS BELOW 12,000 FEET WITH NO
SIGNIFICANT WEATHER AND/OR OBSTRUCTIONS TO VISIBILITY.

NCZ001-053-055-056-065-067-231900-
WESTERN NORTH CAROLINA

CITY           SKY/WX    TMP DP  RH WIND       PRES   REMARKS
ASHEVILLE      SUNNY     65  26  23 N12       29.96F
JEFFERSON      SUNNY     57  11  16 NW13G22   29.93S
HICKORY        SUNNY     69  22  16 W10       29.90F
RUTHERFORDTON  NOT AVBL
MOUNT AIRY     SUNNY     67  20  17 NW10      29.88F
BOONE          SUNNY     57  14  18 NW21G31   29.94S
$$

NCZ021-022-025-041-071-084-088-231900-
CENTRAL NORTH CAROLINA

CITY           SKY/WX    TMP DP  RH WIND       PRES   REMARKS
CHARLOTTE      SUNNY     74  30  19 NW10G16   29.89S
GREENSBORO     SUNNY     68  23  18 NW9G26    29.88F
WINSTON-SALEM  SUNNY     68  24  19 W9        29.90S
RALEIGH-DURHAM SUNNY     67  31  26 W9G22     29.85F
FORT BRAGG     SUNNY     73  32  21 NW13G24   29.83F
FAYETTEVILLE   SUNNY     77  29  17 NW14G22   29.82F
CHAPEL HILL    SUNNY     68  29  23 NW14G20   29.87F
BURLINGTON     SUNNY     68  25  19 N8G20     29.87F
LAURINBURG     SUNNY     74  34  23 NW7G21    29.84F
$$

NCZ011-015-027-028-043-044-047-080-103-231900-
NORTHEASTERN NORTH CAROLINA

CITY           SKY/WX    TMP DP  RH WIND       PRES   REMARKS
ROCKY MT-WILSO SUNNY     70  33  25 NW13G23   29.82F
GREENVILLE     SUNNY     70  34  26 NW10G16   29.84R
WASHINGTON     SUNNY     71  32  23 NW7       29.80S
ELIZABETH CITY   N/A    N/A N/A N/A MISG      29.77F
MANTEO         SUNNY     61  38  43 NE12      29.79S
CAPE HATTERAS  MOSUNNY   62  43  49 NE8G16    29.79S
$$

NCZ078-087-090-091-093-098-101-231900-
SOUTHEASTERN NORTH CAROLINA

CITY           SKY/WX    TMP DP  RH WIND       PRES   REMARKS
LUMBERTON      SUNNY     75  42  30 NW10      29.82F
GOLDSBORO      SUNNY     72  33  24 NW16G22   29.80S
KINSTON        SUNNY     72  32  23 NW18      29.81F
KENANSVILLE    NOT AVBL
NEW BERN       SUNNY     75  38  26 W8G18     29.80S
CHERRY POINT   SUNNY     74  38  27 NW10G26   29.79S
BEAUFORT       SUNNY     67  56  67 SE8       29.79R
JACKSONVILLE   SUNNY     74  39  28 NW13G29   29.80S
WILMINGTON     SUNNY     79  38  22 NW13      29.80S
$$




USA.gov is the U.S. government's official web portal to all federal, state and local government web resources and services.